Flag for United Kingdom Weather past 2 weeks in Swansea, Wales, United Kingdom

Now
42 °F

Quite cool.


Feels Like: 33 °F
Forecast: N/A
Wind: 17 mph from Northwest

Location: Mumbles

Current Time: Jan 31, 2015 at 3:17:02 PM

Latest Report: Jan 31, 2015 at 2:00 PM


Visibility: N/A

Pressure: 29.29 "Hg

Humidity: 74%

Dew point: 34 °F

Location of SwanseaLocation

Historic Weather in Swansea — Graph

°F

Swansea temperature yesterday

Maximum temperature yesterday: 45 °F (at 2:00 PM)
Minimum temperature yesterday: 38 °F (at 10:00 PM)
Average temperature yesterday: 41 °F

Past Weeks' High & Low Weather Summary

 TemperatureHumidityPressure
High49 °F (Jan 26, 6:00 AM)99% (Jan 26, 6:00 AM)30.53 "Hg (Jan 26, 6:00 AM)
Low33 °F (Jan 19, 8:00 AM)57% (Jan 17, 2:00 AM)28.88 "Hg (Jan 30, 4:00 AM)
Average42 °F81%29.90 "Hg
* Reported Jan 16 2:00 PM — Jan 31 2:00 PM, Swansea, Weather by CustomWeather, © 2014

Note: Actual official high and low records may vary slightly from our data, if they occured in-between our weather recording intervals... More about our weather records

Advertising

Swansea weather history for previous 24 hours

 ConditionsComfort  
Time TempWeatherWind HumidityBarometerVisibility
2:00 PM
Jan 31
42 °FQuite cool.17 mph74%29.29 "HgN/A
1:00 PM41 °FQuite cool.16 mph81%29.26 "HgN/A
12:00 PM41 °FQuite cool.14 mph81%29.26 "HgN/A
11:00 AM42 °FQuite cool.7 mph78%29.23 "HgN/A
10:00 AM42 °FQuite cool.13 mph82%29.18 "HgN/A
9:00 AM40 °FChilly.10 mph88%29.15 "HgN/A
8:00 AM39 °FChilly.15 mph91%29.09 "HgN/A
7:00 AM40 °FChilly.18 mph85%29.06 "HgN/A
6:00 AM40 °FChilly.20 mph79%29.06 "HgN/A
5:00 AM39 °FChilly.15 mph80%29.03 "HgN/A
4:00 AM38 °FChilly.15 mph83%29.03 "HgN/A
2:00 AM38 °FChilly.14 mph80%29.06 "HgN/A
1:00 AM38 °FChilly.16 mph78%29.03 "HgN/A
12:00 AM38 °FChilly.15 mph78%29.03 "HgN/A
11:00 PM
Jan 30
38 °FChilly.15 mph78%29.03 "HgN/A
10:00 PM38 °FChilly.12 mph77%29.03 "HgN/A
8:00 PM39 °FChilly.12 mph78%29.03 "HgN/A
7:00 PM40 °FQuite cool.9 mph77%29.03 "HgN/A
6:00 PM40 °FQuite cool.10 mph79%29.03 "HgN/A
5:00 PM42 °FQuite cool.12 mph76%29.03 "HgN/A
4:00 PM42 °FQuite cool.9 mph82%29.03 "HgN/A
3:00 PM42 °FQuite cool.10 mph78%29.03 "HgN/A
Weather by CustomWeather, © 2014

See weather overviewHow to use our weather pages